Content
SEND FEEDBACK

Daily
Averages
Monthly
Summary
United States of America

POWELL BUTTE, OREGON


Home > North America > United States > Oregon
Elevation: 2876 feet     Latitude: 44 19N     Longitude: 120 53W

WEATHER
 
SELECT A DAY
Number of Records: 228,623;   Date Range: 1/1/95 - 7/20/14
 
SHARE

PRINT THIS DATA

[ ← Previous Day ]
WEATHER ALMANAC - FEBRUARY 13, 2013
[ Next Day → ]
[ °C ]   °F
Weather ElementAverageHighLow
Temperature34.7 °F45 °F (2:56 pm)25 °F (10:56 pm)
Dewpoint28.1 °F32 °F (11:56 am)23 °F (10:56 pm)
Humidity77.7 %92 % (6:56 am)53 % (2:56 pm)
Barometer30.42 in30.47 in (10:56 pm)30.38 in (3:56 pm)
Wind Speed3.3 mph9.2 mph (3:56 pm)
Weather ElementAverage
Visibility10 mi
Wind DirectionESE (118.3 °)

Weather ElementTotal
Precipitation---
Heating Degree Days30 (Base 65)
Averaged from 23 records on February 13, 2013
WEATHER CONDITIONS BREAKOUT
WIND DIRECTION BREAKOUT
WEATHER BY HOUR - FEBRUARY 13, 2013
[ °C ]   °F
Local TimeTemperatureDewpointHumidityBarometerVisibilityWind DirectionWind SpeedGust SpeedPrecipitationEventsConditions
1:56 AM32.0 °F27.0 °F82 %30.40 in10.0 miCalm0.00 inOvercast
2:56 AM33.1 °F28.0 °F82 %30.40 in10.0 miSSE (160°)3.5 mphOvercast
3:56 AM33.1 °F28.0 °F82 %30.39 in10.0 miSouth (170°)6.9 mphMostly Cloudy
4:56 AM30.9 °F27.0 °F85 %30.40 in10.0 miSSE (160°)5.8 mphMostly Cloudy
5:56 AM28.9 °F25.0 °F85 %30.41 in10.0 miNE (40°)6.9 mphClear
6:56 AM28.0 °F26.1 °F92 %30.43 in10.0 miSSE (150°)3.5 mphClear
7:56 AM30.0 °F27.0 °F88 %30.43 in10.0 miCalmClear
8:56 AM33.1 °F28.0 °F82 %30.44 in10.0 miCalmClear
9:56 AM37.9 °F30.0 °F73 %30.44 in10.0 miCalmClear
10:56 AM39.9 °F30.9 °F70 %30.44 in9.0 miCalmOvercast
11:56 AM41.0 °F32.0 °F70 %30.43 in10.0 miNE (40°)3.5 mphOvercast
12:56 PM42.1 °F30.9 °F65 %30.42 in10.0 miCalmOvercast
1:56 PM43.0 °F30.9 °F62 %30.40 in10.0 miSE (130°)3.5 mphOvercast
2:56 PM45.0 °F28.9 °F53 %30.39 in10.0 miWNW (300°)6.9 mphOvercast
3:56 PM45.0 °F30.0 °F56 %30.38 in10.0 miNNW (330°)9.2 mphOvercast
4:56 PM44.1 °F30.9 °F60 %30.38 in10.0 miNorth (350°)9.2 mphClear
5:56 PM37.9 °F30.0 °F73 %30.41 in10.0 miNorth (360°)6.9 mphClear
6:56 PM36.0 °F30.0 °F79 %30.42 in10.0 miNorth (350°)4.6 mphClear
7:56 PM30.9 °F27.0 °F85 %30.44 in10.0 miCalmClear
8:56 PM28.0 °F25.0 °F88 %30.45 in10.0 miCalmClear
9:56 PM27.0 °F25.0 °F92 %30.45 in10.0 miCalmClear
10:56 PM25.0 °F23.0 °F92 %30.47 in10.0 miCalmClear
11:56 PM27.0 °F25.0 °F92 %30.47 in10.0 miSouth (180°)4.6 mphClear
Hourly data recorded from KRDM, located miles away from Powell Butte, Oregon







STORIES FROM OUR PARTNERS